Nogales, AZ

1:10 PM MST on October 23, 2017 (GMT -0700)
Nogales International

Weather History for KOLS - October, 2012

Change the Weather History Date:

Friday, October 12, 2012

  Actual Average (KFHU) Record (KFHU)
Temperature  
Mean Temperature 62 °F -  
Max Temperature 73 °F 79 °F 89 °F (1989)
Min Temperature 50 °F 56 °F 39 °F (1982)
Degree Days  
Heating Degree Days 2    
Growing Degree Days 12 (Base 50)    
Moisture  
Dew Point 38 °F    
Average Humidity 44    
Maximum Humidity 75    
Minimum Humidity 19    
Precipitation  
Precipitation 0.00 in - - ()
Sea Level Pressure  
Sea Level Pressure 29.96 in    
Wind  
Wind Speed 10 mph (SW)    
Max Wind Speed 18 mph    
Max Gust Speed 23 mph    
Visibility 10 miles    
Events      
Averages and records for this station are not official NWS values.
T = Trace of Precipitation, MM = Missing Value Source: NWS Daily Summary

Daily Weather History Graph

Daily Weather History Graph

Search for Another Location

Airport or City:

Trip Planner

Search our weather history database for the weather conditions in past years. The results will help you decide how hot, cold, wet, or windy it might be!

Date:

Astronomy

Oct. 12, 2012 Rise Set
Actual Time 6:24 AM MST 5:54 PM MST
Civil Twilight 6:00 AM MST 6:18 PM MST
Nautical Twilight 5:32 AM MST 6:46 PM MST
Astronomical Twilight 5:03 AM MST 7:14 PM MST
Moon 3:21 AM MST (10/12) 3:58 PM MST (10/12)
Length of Visible Light 12h 18m
Length of Day
11h 29m
Waning Crescent, 10% of the Moon is Illuminated
Oct 12
Waning Crescent
Oct 15
New
Oct 21
First Quarter
Oct 29
Full
Nov 6
Last Quarter

Hourly Weather History & Observations

Time (MST) Temp. Dew Point Humidity Pressure Visibility Wind Dir Wind Speed Gust Speed Precip Events Conditions
12:54 AM 66.9 °F 46.0 °F 47% 29.83 in 10.0 mi South 18.4 mph 23.0 mph N/A   Mostly Cloudy
1:54 AM 60.1 °F 43.0 °F 53% 29.86 in 10.0 mi West 6.9 mph - N/A   Overcast
2:54 AM 60.1 °F 44.1 °F 55% 29.88 in 10.0 mi SW 5.8 mph - N/A   Overcast
3:54 AM 60.1 °F 44.1 °F 55% 29.87 in 10.0 mi South 10.4 mph - N/A   Overcast
4:54 AM 60.1 °F 45.0 °F 57% 29.88 in 10.0 mi SSW 8.1 mph - N/A   Overcast
5:54 AM 55.9 °F 46.0 °F 69% 29.92 in 10.0 mi West 10.4 mph - N/A   Mostly Cloudy
6:54 AM 55.9 °F 48.0 °F 75% 29.94 in 10.0 mi SW 3.5 mph - N/A   Mostly Cloudy
7:54 AM 59.0 °F 48.0 °F 67% 29.96 in 10.0 mi SSE 3.5 mph - N/A   Clear
8:54 AM 62.6 °F 46.4 °F 55% 30.13 in 10.0 mi West 8.1 mph - N/A   Clear
9:54 AM 66.0 °F 45.0 °F 47% 29.98 in 10.0 mi WSW 10.4 mph - N/A   Partly Cloudy
10:54 AM 68.0 °F 41.0 °F 37% 29.98 in 10.0 mi SW 11.5 mph - N/A   Clear
11:54 AM 71.1 °F 36.0 °F 28% 29.96 in 10.0 mi WSW 13.8 mph 17.3 mph N/A   Clear
12:54 PM 73.0 °F 28.0 °F 19% 29.94 in 10.0 mi SSW 17.3 mph - N/A   Clear
1:54 PM 73.0 °F 32.0 °F 22% 29.94 in 10.0 mi WSW 12.7 mph 23.0 mph N/A   Clear
2:54 PM 72.0 °F 28.0 °F 20% 29.94 in 10.0 mi WSW 11.5 mph - N/A   Clear
3:54 PM 71.1 °F 27.0 °F 19% 29.94 in 10.0 mi West 10.4 mph 19.6 mph N/A   Clear
4:54 PM 70.0 °F 30.0 °F 23% 29.94 in 10.0 mi WSW 9.2 mph - N/A   Clear
5:54 PM 66.0 °F 33.1 °F 29% 29.96 in 10.0 mi WSW 8.1 mph - N/A   Clear
6:54 PM 62.6 °F 33.8 °F 34% 30.10 in 10.0 mi WSW 4.6 mph - N/A   Clear
7:54 PM 55.9 °F 34.0 °F 44% 30.00 in 10.0 mi ENE 3.5 mph - N/A   Clear
8:54 PM 55.0 °F 35.1 °F 47% 30.00 in 10.0 mi Calm Calm - N/A   Clear
9:54 PM 52.0 °F 35.1 °F 53% 30.01 in 10.0 mi East 4.6 mph - N/A   Clear
10:54 PM 52.0 °F 36.0 °F 54% 30.01 in 10.0 mi East 5.8 mph - N/A   Clear
11:54 PM 50.0 °F 36.0 °F 59% 30.01 in 10.0 mi Calm Calm - N/A   Clear